ABQ406 OPKC-OPLA

Flight info

Callsign ABQ406
Flight time 1h 35m
Altitude 39000
Route BADUL1D/25L BADUL J112 MIMAL
Aircraft A20N/M-SDE2E3FGHIRWXY/LB1

Departure

Time 2026-04-26 18:55
Airport Jinnah International Airport (OPKC)

Arrival

Time 2026-04-26 20:30
Airport Allama Iqbal International Airport (OPLA)
Time Latitude Longitude Altitude Speed Heading
2026-04-26 18:29 24.90190 67.16676 94 ft 0 kts 240°
2026-04-26 18:45 24.90193 67.16682 94 ft 1 kts 240°
2026-04-26 18:45 24.90197 67.16689 95 ft 1 kts 240°
2026-04-26 18:45 24.90202 67.16699 97 ft 2 kts 256°
2026-04-26 18:46 24.90203 67.16715 93 ft 2 kts 283°
2026-04-26 18:46 24.90199 67.16728 93 ft 1 kts 309°
2026-04-26 18:46 24.90195 67.16733 96 ft 0 kts 324°
2026-04-26 18:50 24.90211 67.16725 95 ft 4 kts 340°
2026-04-26 18:51 24.90249 67.16714 94 ft 7 kts 353°
2026-04-26 18:51 24.90272 67.16712 97 ft 2 kts 357°
2026-04-26 18:51 24.90295 67.16711 96 ft 5 kts 358°
2026-04-26 18:51 24.90340 67.16721 98 ft 8 kts
2026-04-26 18:52 24.90403 67.16706 94 ft 9 kts 343°
2026-04-26 18:52 24.90467 67.16708 95 ft 9 kts 33°
2026-04-26 18:52 24.90495 67.16779 94 ft 11 kts 75°
2026-04-26 18:52 24.90518 67.16873 95 ft 14 kts 73°
2026-04-26 18:53 24.90549 67.16983 96 ft 16 kts 72°
2026-04-26 18:53 24.90581 67.17108 97 ft 18 kts 75°
2026-04-26 18:53 24.90616 67.17249 98 ft 20 kts 75°
2026-04-26 18:53 24.90649 67.17374 98 ft 16 kts 68°
2026-04-26 18:54 24.90734 67.17454 98 ft 17 kts 26°
2026-04-26 18:54 24.90767 67.17471 99 ft 2 kts 26°
2026-04-26 18:54 24.90846 67.17477 100 ft 18 kts 332°
2026-04-26 18:54 24.90828 67.17287 99 ft 53 kts 251°
2026-04-26 18:55 24.90669 67.16654 96 ft 115 kts 254°
2026-04-26 18:55 24.90411 67.15643 96 ft 160 kts 254°
2026-04-26 18:55 24.90171 67.14481 742 ft 148 kts 267°
2026-04-26 18:55 24.90398 67.13366 1232 ft 157 kts 300°
2026-04-26 18:56 24.91257 67.12591 1813 ft 168 kts 335°
2026-04-26 18:56 24.92492 67.12563 2240 ft 194 kts 12°
2026-04-26 18:56 24.93659 67.13481 2573 ft 224 kts 47°
2026-04-26 18:56 24.94573 67.15021 2785 ft 255 kts 57°
2026-04-26 18:57 24.95559 67.16702 3320 ft 267 kts 52°
2026-04-26 18:57 24.95923 67.17255 3604 ft 266 kts 51°
2026-04-26 18:57 24.97865 67.19910 5058 ft 264 kts 48°
2026-04-26 18:57 24.99062 67.21440 5903 ft 264 kts 47°
2026-04-26 18:58 25.00276 67.22969 6721 ft 265 kts 47°
2026-04-26 18:58 25.01488 67.24496 7472 ft 267 kts 48°
2026-04-26 18:58 25.02712 67.26040 8238 ft 269 kts 48°
2026-04-26 18:58 25.03947 67.27603 9022 ft 271 kts 48°
2026-04-26 18:59 25.05175 67.29158 9790 ft 272 kts 48°
2026-04-26 18:59 25.06433 67.30754 10507 ft 275 kts 49°
2026-04-26 18:59 25.07690 67.32350 11216 ft 278 kts 49°
2026-04-26 18:59 25.08973 67.33979 11913 ft 281 kts 49°
2026-04-26 19:00 25.10265 67.35601 12618 ft 284 kts 46°
2026-04-26 19:00 25.11743 67.37061 13279 ft 290 kts 39°
2026-04-26 19:00 25.13368 67.38546 13516 ft 312 kts 39°
2026-04-26 19:00 25.15091 67.40131 13691 ft 333 kts 39°
2026-04-26 19:01 25.16905 67.41805 13867 ft 353 kts 40°
2026-04-26 19:01 25.18849 67.43601 14146 ft 367 kts 40°
2026-04-26 19:01 25.20797 67.45403 14716 ft 371 kts 40°
2026-04-26 19:01 25.22782 67.47240 15285 ft 375 kts 39°
2026-04-26 19:02 25.24799 67.49100 15864 ft 380 kts 39°
2026-04-26 19:02 25.26872 67.50998 16429 ft 385 kts 39°
2026-04-26 19:02 25.28923 67.52870 16982 ft 389 kts 39°
2026-04-26 19:02 25.29630 67.53514 17178 ft 391 kts 39°
2026-04-26 19:03 25.33146 67.56725 18140 ft 396 kts 39°
2026-04-26 19:03 25.35274 67.58671 18651 ft 399 kts 39°
2026-04-26 19:03 25.37410 67.60627 19172 ft 402 kts 39°
2026-04-26 19:03 25.38881 67.61975 19496 ft 405 kts 39°
2026-04-26 19:04 25.41772 67.64624 19739 ft 408 kts 39°
2026-04-26 19:04 25.43215 67.65947 19767 ft 408 kts 39°
2026-04-26 19:04 25.45415 67.67965 19819 ft 410 kts 39°
2026-04-26 19:04 25.47616 67.69984 20292 ft 412 kts 39°
2026-04-26 19:05 25.52066 67.74071 21326 ft 418 kts 39°
2026-04-26 19:05 25.54298 67.76122 21814 ft 421 kts 39°
2026-04-26 19:05 25.56557 67.78199 22294 ft 425 kts 39°
2026-04-26 19:06 25.58850 67.80309 22773 ft 429 kts 39°
2026-04-26 19:06 25.61161 67.82436 23240 ft 432 kts 39°
2026-04-26 19:06 25.63479 67.84570 23665 ft 435 kts 39°
2026-04-26 19:06 25.65816 67.86724 24111 ft 437 kts 39°
2026-04-26 19:07 25.68154 67.88879 24546 ft 439 kts 39°
2026-04-26 19:07 25.70487 67.91030 24974 ft 441 kts 39°
2026-04-26 19:07 25.72856 67.93217 25385 ft 443 kts 39°
2026-04-26 19:07 25.75228 67.95408 25788 ft 446 kts 39°
2026-04-26 19:08 25.77618 67.97616 26187 ft 448 kts 39°
2026-04-26 19:08 25.80014 67.99831 26574 ft 450 kts 39°
2026-04-26 19:08 25.82423 68.02060 26959 ft 452 kts 39°
2026-04-26 19:08 25.84858 68.04313 27339 ft 455 kts 39°
2026-04-26 19:09 25.87294 68.06568 27694 ft 457 kts 39°
2026-04-26 19:09 25.89744 68.08838 28059 ft 459 kts 39°
2026-04-26 19:09 25.92198 68.11113 28414 ft 462 kts 39°
2026-04-26 19:09 25.94683 68.13418 28768 ft 464 kts 39°
2026-04-26 19:10 25.97173 68.15729 29091 ft 467 kts 39°
2026-04-26 19:10 25.99645 68.18024 29428 ft 469 kts 39°
2026-04-26 19:10 26.02169 68.20370 29747 ft 471 kts 39°
2026-04-26 19:10 26.04687 68.22710 30050 ft 473 kts 39°
2026-04-26 19:11 26.07210 68.25058 30370 ft 475 kts 39°
2026-04-26 19:11 26.09770 68.27441 30665 ft 477 kts 38°
2026-04-26 19:11 26.12285 68.29783 30995 ft 477 kts 38°
2026-04-26 19:11 26.14855 68.32178 31391 ft 476 kts 38°
2026-04-26 19:12 26.17361 68.34516 31770 ft 475 kts 38°
2026-04-26 19:12 26.19905 68.36890 32155 ft 474 kts 38°
2026-04-26 19:12 26.22461 68.39272 32523 ft 474 kts 37°
2026-04-26 19:12 26.25041 68.41530 32873 ft 473 kts 35°
2026-04-26 19:13 26.27659 68.43722 33214 ft 472 kts 34°
2026-04-26 19:13 26.30276 68.45900 33546 ft 472 kts 34°
2026-04-26 19:13 26.32927 68.48122 33850 ft 471 kts 34°
2026-04-26 19:13 26.35548 68.50335 34121 ft 471 kts 35°
2026-04-26 19:14 26.38150 68.52544 34382 ft 471 kts 35°
2026-04-26 19:14 26.40745 68.54752 34641 ft 470 kts 35°
2026-04-26 19:14 26.43354 68.56976 34901 ft 470 kts 35°
2026-04-26 19:14 26.45070 68.58438 35068 ft 470 kts 35°
2026-04-26 19:15 26.48555 68.61411 35396 ft 469 kts 35°
2026-04-26 19:15 26.51129 68.63608 35633 ft 469 kts 35°
2026-04-26 19:15 26.53742 68.65840 35866 ft 469 kts 35°
2026-04-26 19:15 26.56309 68.68033 36086 ft 468 kts 35°
2026-04-26 19:16 26.58922 68.70268 36301 ft 468 kts 35°
2026-04-26 19:16 26.61502 68.72474 36504 ft 468 kts 35°
2026-04-26 19:16 26.64075 68.74666 36708 ft 468 kts 34°
2026-04-26 19:16 26.66674 68.76877 36907 ft 468 kts 34°
2026-04-26 19:17 26.69266 68.79082 37088 ft 468 kts 34°
2026-04-26 19:17 26.71867 68.81297 37280 ft 468 kts 34°
2026-04-26 19:17 26.74463 68.83509 37451 ft 468 kts 35°
2026-04-26 19:17 26.77022 68.85692 37612 ft 468 kts 35°
2026-04-26 19:18 26.79632 68.87920 37785 ft 468 kts 35°
2026-04-26 19:18 26.82223 68.90134 37936 ft 468 kts 35°
2026-04-26 19:18 26.84807 68.92343 38089 ft 468 kts 35°
2026-04-26 19:18 26.87371 68.94536 38229 ft 468 kts 35°
2026-04-26 19:19 26.89971 68.96760 38370 ft 468 kts 35°
2026-04-26 19:19 26.92547 68.98966 38483 ft 468 kts 34°
2026-04-26 19:19 26.95158 69.01203 38593 ft 468 kts 34°
2026-04-26 19:20 27.00326 69.05635 38674 ft 469 kts 34°
2026-04-26 19:20 27.05502 69.10079 38677 ft 469 kts 34°
2026-04-26 19:21 27.10687 69.14535 38684 ft 469 kts 34°
2026-04-26 19:21 27.15872 69.18997 38678 ft 470 kts 34°
2026-04-26 19:22 27.21060 69.23467 38681 ft 470 kts 34°
2026-04-26 19:22 27.26254 69.27948 38681 ft 470 kts 34°
2026-04-26 19:23 27.31428 69.32501 38676 ft 471 kts 36°
2026-04-26 19:23 27.36547 69.37080 38675 ft 471 kts 36°
2026-04-26 19:24 27.41667 69.41651 38677 ft 471 kts 36°
2026-04-26 19:24 27.49371 69.48526 38675 ft 471 kts 36°
2026-04-26 19:25 27.53630 69.52332 38673 ft 471 kts 36°
2026-04-26 19:25 27.59623 69.57693 38672 ft 471 kts 36°
2026-04-26 19:26 27.64758 69.62294 38672 ft 471 kts 36°
2026-04-26 19:26 27.69907 69.66912 38671 ft 472 kts 36°
2026-04-26 19:27 27.75022 69.71506 38668 ft 472 kts 36°
2026-04-26 19:27 27.80166 69.76132 38669 ft 472 kts 36°
2026-04-26 19:28 27.85312 69.80764 38667 ft 472 kts 36°
2026-04-26 19:28 27.90441 69.85388 38670 ft 473 kts 36°
2026-04-26 19:29 27.95584 69.90030 38668 ft 473 kts 35°
2026-04-26 19:29 28.00709 69.94661 38672 ft 473 kts 35°
2026-04-26 19:30 28.05864 69.99326 38671 ft 474 kts 35°
2026-04-26 19:30 28.10159 70.03217 38667 ft 474 kts 35°
2026-04-26 19:31 28.16179 70.08678 38669 ft 475 kts 35°
2026-04-26 19:31 28.21348 70.13373 38667 ft 475 kts 35°
2026-04-26 19:32 28.26487 70.18046 38671 ft 475 kts 35°
2026-04-26 19:32 28.31631 70.22733 38672 ft 475 kts 35°
2026-04-26 19:33 28.36714 70.27525 38672 ft 478 kts 40°
2026-04-26 19:33 28.41322 70.33039 38670 ft 479 kts 44°
2026-04-26 19:34 28.45858 70.38575 38670 ft 480 kts 44°
2026-04-26 19:34 28.50405 70.44134 38666 ft 480 kts 44°
2026-04-26 19:35 28.54948 70.49703 38671 ft 480 kts 44°
2026-04-26 19:35 28.59478 70.55268 38673 ft 480 kts 44°
2026-04-26 19:36 28.62496 70.58979 38672 ft 480 kts 44°
2026-04-26 19:36 28.68557 70.66443 38674 ft 480 kts 44°
2026-04-26 19:37 28.73087 70.72031 38673 ft 480 kts 44°
2026-04-26 19:37 28.77613 70.77620 38673 ft 480 kts 44°
2026-04-26 19:38 28.82132 70.83209 38673 ft 480 kts 44°
2026-04-26 19:38 28.86669 70.88829 38667 ft 480 kts 44°
2026-04-26 19:39 28.91180 70.94423 38665 ft 480 kts 44°
2026-04-26 19:39 28.95684 71.00016 38666 ft 480 kts 44°
2026-04-26 19:40 29.00226 71.05665 38667 ft 480 kts 44°
2026-04-26 19:40 29.04726 71.11269 38668 ft 480 kts 44°
2026-04-26 19:41 29.08483 71.15954 38673 ft 480 kts 44°
2026-04-26 19:41 29.12265 71.20675 38669 ft 480 kts 44°
2026-04-26 19:42 29.17523 71.27248 38673 ft 480 kts 44°
2026-04-26 19:42 29.22005 71.32861 38672 ft 480 kts 44°
2026-04-26 19:43 29.26508 71.38506 38670 ft 480 kts 44°
2026-04-26 19:43 29.31016 71.44176 38674 ft 480 kts 44°
2026-04-26 19:44 29.35451 71.49888 38674 ft 481 kts 45°
2026-04-26 19:44 29.39902 71.55641 38671 ft 481 kts 44°
2026-04-26 19:45 29.44340 71.61368 38676 ft 481 kts 44°
2026-04-26 19:45 29.48797 71.67125 38675 ft 481 kts 44°
2026-04-26 19:46 29.53231 71.72859 38674 ft 481 kts 44°
2026-04-26 19:46 29.57674 71.78614 38675 ft 481 kts 44°
2026-04-26 19:47 29.61352 71.83384 38675 ft 481 kts 45°
2026-04-26 19:47 29.66521 71.90098 38677 ft 481 kts 45°
2026-04-26 19:48 29.70961 71.95874 38676 ft 480 kts 45°
2026-04-26 19:48 29.75367 72.01613 38678 ft 480 kts 45°
2026-04-26 19:49 29.79794 72.07388 38681 ft 480 kts 45°
2026-04-26 19:49 29.84145 72.13205 38682 ft 482 kts 50°
2026-04-26 19:50 29.87684 72.19817 38685 ft 486 kts 62°
2026-04-26 19:50 29.90119 72.27068 38681 ft 488 kts 69°
2026-04-26 19:51 29.92360 72.34474 38689 ft 487 kts 69°
2026-04-26 19:51 29.94583 72.41829 38690 ft 487 kts 69°
2026-04-26 19:52 29.96796 72.49194 38683 ft 487 kts 69°
2026-04-26 19:52 29.99006 72.56573 38684 ft 486 kts 69°
2026-04-26 19:53 30.01873 72.63612 38684 ft 482 kts 55°
2026-04-26 19:53 30.05845 72.69733 38682 ft 476 kts 44°
2026-04-26 19:54 30.10283 72.75429 38435 ft 474 kts 44°
2026-04-26 19:54 30.12486 72.78277 37848 ft 474 kts 44°
2026-04-26 19:54 30.14693 72.81131 37116 ft 476 kts 44°
2026-04-26 19:55 30.16878 72.83958 36234 ft 476 kts 44°
2026-04-26 19:55 30.19106 72.86841 35170 ft 479 kts 44°
2026-04-26 19:55 30.21319 72.89706 34118 ft 482 kts 44°
2026-04-26 19:55 30.23561 72.92617 33006 ft 485 kts 45°
2026-04-26 19:56 30.25793 72.95517 31960 ft 485 kts 45°
2026-04-26 19:56 30.28041 72.98441 30932 ft 484 kts 45°
2026-04-26 19:56 30.30264 73.01334 29935 ft 483 kts 45°
2026-04-26 19:56 30.32504 73.04251 28996 ft 477 kts 46°
2026-04-26 19:57 30.34674 73.07081 28198 ft 472 kts 46°
2026-04-26 19:57 30.36854 73.09926 27619 ft 467 kts 46°
2026-04-26 19:57 30.39005 73.12735 27040 ft 463 kts 46°
2026-04-26 19:57 30.41134 73.15516 26445 ft 459 kts 46°
2026-04-26 19:58 30.43236 73.18263 25868 ft 455 kts 46°
2026-04-26 19:58 30.45335 73.21009 25308 ft 452 kts 46°
2026-04-26 19:58 30.47400 73.23713 24761 ft 448 kts 46°
2026-04-26 19:58 30.49447 73.26394 24220 ft 445 kts 46°
2026-04-26 19:59 30.51501 73.29087 23691 ft 441 kts 46°
2026-04-26 19:59 30.53527 73.31744 23157 ft 438 kts 46°
2026-04-26 19:59 30.55531 73.34376 22575 ft 434 kts 46°
2026-04-26 19:59 30.57531 73.37004 22004 ft 430 kts 46°
2026-04-26 20:00 30.59506 73.39599 21437 ft 426 kts 46°
2026-04-26 20:00 30.61442 73.42147 20941 ft 421 kts 46°
2026-04-26 20:00 30.63356 73.44667 20755 ft 417 kts 46°
2026-04-26 20:00 30.65291 73.47214 20704 ft 422 kts 46°
2026-04-26 20:01 30.67239 73.49781 20628 ft 419 kts 46°
2026-04-26 20:01 30.69155 73.52309 20071 ft 415 kts 46°
2026-04-26 20:01 30.71063 73.54828 19402 ft 411 kts 46°
2026-04-26 20:01 30.72946 73.57314 18679 ft 406 kts 46°
2026-04-26 20:02 30.74785 73.59745 17959 ft 401 kts 46°
2026-04-26 20:02 30.76605 73.62153 17162 ft 396 kts 46°
2026-04-26 20:02 30.78427 73.64565 16529 ft 393 kts 46°
2026-04-26 20:02 30.79619 73.66145 16198 ft 390 kts 46°
2026-04-26 20:03 30.82011 73.69315 15522 ft 385 kts 46°
2026-04-26 20:03 30.83753 73.71627 15028 ft 382 kts 45°
2026-04-26 20:03 30.85521 73.73972 14532 ft 379 kts 45°
2026-04-26 20:03 30.87246 73.76264 14054 ft 376 kts 45°
2026-04-26 20:04 30.88960 73.78541 13585 ft 373 kts 45°
2026-04-26 20:04 30.90650 73.80788 13068 ft 370 kts 45°
2026-04-26 20:04 30.92344 73.83040 12567 ft 366 kts 45°
2026-04-26 20:04 30.94027 73.85278 12077 ft 363 kts 45°
2026-04-26 20:05 30.95682 73.87481 11586 ft 360 kts 45°
2026-04-26 20:05 30.97300 73.89636 11113 ft 356 kts 45°
2026-04-26 20:05 30.98939 73.91819 10651 ft 353 kts 45°
2026-04-26 20:05 31.00550 73.93967 10201 ft 350 kts 45°
2026-04-26 20:06 31.02118 73.96062 9983 ft 333 kts 45°
2026-04-26 20:06 31.03590 73.98035 9813 ft 314 kts 45°
2026-04-26 20:06 31.04977 73.99892 9553 ft 300 kts 44°
2026-04-26 20:06 31.06344 74.01714 9022 ft 296 kts 45°
2026-04-26 20:07 31.07690 74.03506 8782 ft 296 kts 45°
2026-04-26 20:07 31.09065 74.05337 8706 ft 297 kts 45°
2026-04-26 20:07 31.10408 74.07129 8704 ft 297 kts 45°
2026-04-26 20:07 31.11779 74.08962 8706 ft 299 kts 45°
2026-04-26 20:08 31.13148 74.10795 8702 ft 296 kts 45°
2026-04-26 20:08 31.14492 74.12596 8705 ft 297 kts 45°
2026-04-26 20:08 31.15843 74.14407 8706 ft 297 kts 45°
2026-04-26 20:08 31.17214 74.16245 8702 ft 297 kts 45°
2026-04-26 20:09 31.18562 74.18054 8701 ft 297 kts 45°
2026-04-26 20:09 31.19931 74.19890 8701 ft 297 kts 45°
2026-04-26 20:09 31.21284 74.21707 8699 ft 297 kts 45°
2026-04-26 20:09 31.22638 74.23526 8699 ft 297 kts 45°
2026-04-26 20:10 31.23986 74.25338 8675 ft 296 kts 45°
2026-04-26 20:10 31.25324 74.27137 8278 ft 294 kts 46°
2026-04-26 20:10 31.26677 74.28956 7784 ft 290 kts 46°
2026-04-26 20:10 31.27957 74.30683 7633 ft 273 kts 46°
2026-04-26 20:11 31.29182 74.32333 7130 ft 272 kts 46°
2026-04-26 20:11 31.30465 74.34053 6310 ft 284 kts 46°
2026-04-26 20:11 31.31770 74.35804 5700 ft 286 kts 47°
2026-04-26 20:12 31.34351 74.39050 5266 ft 254 kts 31°
2026-04-26 20:12 31.35888 74.39860 5080 ft 236 kts 12°
2026-04-26 20:12 31.37486 74.40151 4698 ft 233 kts
2026-04-26 20:12 31.39123 74.40223 4101 ft 239 kts 358°
2026-04-26 20:13 31.40818 74.40250 3421 ft 249 kts 360°
2026-04-26 20:13 31.42581 74.40277 2697 ft 258 kts
2026-04-26 20:13 31.44407 74.40311 2002 ft 265 kts
2026-04-26 20:13 31.46206 74.40347 1638 ft 253 kts
2026-04-26 20:14 31.47883 74.40378 1319 ft 229 kts
2026-04-26 20:14 31.49407 74.40406 1022 ft 206 kts 360°
2026-04-26 20:14 31.50823 74.40429 989 ft 219 kts
2026-04-26 20:14 31.52441 74.40494 1432 ft 240 kts
2026-04-26 20:15 31.54128 74.40556 2004 ft 247 kts
2026-04-26 20:15 31.55853 74.40544 2655 ft 248 kts 358°
2026-04-26 20:15 31.57597 74.40520 3031 ft 256 kts 358°
2026-04-26 20:15 31.59479 74.40437 3059 ft 278 kts 357°
2026-04-26 20:16 31.61358 74.40400 2972 ft 255 kts 358°
2026-04-26 20:16 31.63022 74.40371 2969 ft 225 kts 358°
2026-04-26 20:16 31.64584 74.40425 2975 ft 226 kts
2026-04-26 20:16 31.66131 74.40505 2971 ft 224 kts
2026-04-26 20:17 31.67655 74.40230 2976 ft 221 kts 333°
2026-04-26 20:17 31.68798 74.39043 2978 ft 222 kts 301°
2026-04-26 20:17 31.69199 74.37310 2980 ft 226 kts 269°
2026-04-26 20:17 31.68975 74.36104 2980 ft 229 kts 247°
2026-04-26 20:18 31.67989 74.34640 2975 ft 233 kts 223°
2026-04-26 20:18 31.66752 74.33391 2981 ft 234 kts 222°
2026-04-26 20:18 31.65516 74.32155 2972 ft 232 kts 222°
2026-04-26 20:18 31.64277 74.30920 2974 ft 233 kts 222°
2026-04-26 20:19 31.63044 74.29689 2975 ft 232 kts 222°
2026-04-26 20:19 31.61780 74.28520 2974 ft 233 kts 209°
2026-04-26 20:19 31.60210 74.28062 2977 ft 237 kts 184°
2026-04-26 20:19 31.58557 74.28015 2968 ft 237 kts 182°
2026-04-26 20:20 31.56913 74.27975 2972 ft 237 kts 182°
2026-04-26 20:20 31.55266 74.27935 2972 ft 235 kts 182°
2026-04-26 20:20 31.53617 74.27898 2967 ft 236 kts 182°
2026-04-26 20:20 31.52037 74.27862 2962 ft 217 kts 182°
2026-04-26 20:21 31.50564 74.27830 2977 ft 212 kts 182°
2026-04-26 20:21 31.49080 74.27798 2976 ft 212 kts 182°
2026-04-26 20:21 31.47601 74.27771 2970 ft 212 kts 182°
2026-04-26 20:21 31.46137 74.27744 2974 ft 212 kts 182°
2026-04-26 20:22 31.44651 74.27717 2970 ft 211 kts 182°
2026-04-26 20:22 31.43184 74.27688 2970 ft 212 kts 182°
2026-04-26 20:22 31.41713 74.27658 2969 ft 212 kts 182°
2026-04-26 20:22 31.40233 74.27629 2976 ft 212 kts 182°
2026-04-26 20:23 31.38758 74.27603 2972 ft 212 kts 182°
2026-04-26 20:23 31.37286 74.27579 2978 ft 212 kts 182°
2026-04-26 20:23 31.35804 74.27619 2969 ft 212 kts 167°
2026-04-26 20:23 31.34526 74.28421 2979 ft 214 kts 132°
2026-04-26 20:24 31.33883 74.29873 2983 ft 191 kts 97°
2026-04-26 20:24 31.33767 74.31324 2963 ft 164 kts 92°
2026-04-26 20:24 31.33685 74.32631 2982 ft 166 kts 92°
2026-04-26 20:24 31.33601 74.33963 2970 ft 161 kts 92°
2026-04-26 20:25 31.33519 74.35282 2975 ft 164 kts 92°
2026-04-26 20:25 31.33465 74.36161 2970 ft 162 kts 92°
2026-04-26 20:25 31.33354 74.37934 2970 ft 162 kts 92°
2026-04-26 20:25 31.33408 74.39228 2955 ft 159 kts 59°
2026-04-26 20:26 31.34244 74.40007 2983 ft 155 kts 12°
2026-04-26 20:26 31.35295 74.40162 2970 ft 152 kts 360°
2026-04-26 20:26 31.36352 74.40168 2970 ft 152 kts 358°
2026-04-26 20:26 31.37403 74.40185 2972 ft 152 kts 359°
2026-04-26 20:27 31.38460 74.40204 2975 ft 153 kts 359°
2026-04-26 20:27 31.39528 74.40224 2818 ft 153 kts 359°
2026-04-26 20:27 31.40593 74.40243 2640 ft 151 kts 360°
2026-04-26 20:27 31.41641 74.40263 2438 ft 150 kts 360°
2026-04-26 20:28 31.42665 74.40281 2265 ft 146 kts
2026-04-26 20:28 31.43686 74.40300 2081 ft 147 kts
2026-04-26 20:28 31.44667 74.40319 1905 ft 133 kts
2026-04-26 20:28 31.45609 74.40336 1734 ft 136 kts
2026-04-26 20:29 31.46544 74.40353 1570 ft 135 kts
2026-04-26 20:29 31.47483 74.40370 1408 ft 136 kts
2026-04-26 20:29 31.48449 74.40388 1224 ft 139 kts 360°
2026-04-26 20:29 31.49408 74.40406 1045 ft 138 kts 359°
2026-04-26 20:30 31.50370 74.40423 851 ft 137 kts
2026-04-26 20:30 31.51320 74.40451 717 ft 129 kts
2026-04-26 20:30 31.51921 74.40457 719 ft 44 kts
2026-04-26 20:30 31.52165 74.40460 723 ft 42 kts
2026-04-26 20:31 31.52529 74.40464 720 ft 54 kts
2026-04-26 20:31 31.52766 74.40478 721 ft 13 kts 28°
2026-04-26 20:31 31.52797 74.40630 718 ft 7 kts 99°
2026-04-26 20:31 31.52771 74.40670 722 ft 16 kts 158°
2026-04-26 20:32 31.52584 74.40674 720 ft 37 kts 181°
2026-04-26 20:32 31.52442 74.40678 720 ft 17 kts 162°
2026-04-26 20:32 31.52407 74.40753 721 ft 8 kts 98°
2026-04-26 20:32 31.52384 74.40835 721 ft 11 kts 141°
2026-04-26 20:33 31.52297 74.40844 719 ft 14 kts 181°
2026-04-26 20:33 31.52199 74.40838 720 ft 12 kts 181°
2026-04-26 20:33 31.52171 74.40890 717 ft 10 kts 91°
2026-04-26 20:33 31.52171 74.40952 718 ft 2 kts 89°